When you browse on this site, cookies collect data to enhance your experience and personalize the content and advertising you see.
Visit our Privacy Policy to learn more. By continuing to use the site, you agree to this use of cookies and data.
  • en Belgique
  • Liste des pays
  • À 7 jours
  • Température de l'eau
  • Carte satellitaire
  • Carte météo
  • Widgets météo
  • user-avatar
    Se connecter

    Météo par heure à Rybnica

    Ce jour, 21 Février, Jeudi

    Heure Température Précipitation Vent Pression Humidité
    00:00 +1°C° 0 mm 4 m/s 741 mmHg 82%
    01:00 0°C° 0 mm 4 m/s 742 mmHg 85%
    02:00 0°C° 0 mm 4 m/s 742 mmHg 88%
    03:00 -1°C° 0 mm 4 m/s 742 mmHg 89%
    04:00 -1°C° 0 mm 4 m/s 742 mmHg 91%
    05:00 -1°C° 0 mm 4 m/s 742 mmHg 93%
    06:00 -1°C° 0 mm 4 m/s 743 mmHg 93%
    07:00 -1°C° 0 mm 4 m/s 743 mmHg 93%
    08:00 0°C° 0 mm 4 m/s 743 mmHg 93%
    09:00 0°C° 0 mm 4 m/s 743 mmHg 90%
    10:00 +1°C° 0 mm 4 m/s 743 mmHg 88%
    11:00 +2°C° 0 mm 5 m/s 743 mmHg 86%
    12:00 +2°C° 0.1 mm 5 m/s 743 mmHg 84%
    13:00 +3°C° 0.1 mm 5 m/s 743 mmHg 82%
    14:00 +3°C° 0.1 mm 5 m/s 743 mmHg 81%
    15:00 +3°C° 0.1 mm 5 m/s 742 mmHg 80%
    16:00 +5°C° 0.1 mm 4 m/s 742 mmHg 79%
    17:00 +5°C° 0.1 mm 4 m/s 742 mmHg 78%
    18:00 +4°C° 0.3 mm 4 m/s 741 mmHg 80%
    19:00 +4°C° 0.3 mm 4 m/s 741 mmHg 82%
    20:00 +4°C° 0.3 mm 4 m/s 741 mmHg 85%
    21:00 +3°C° 1 mm 5 m/s 741 mmHg 86%
    22:00 +3°C° 1 mm 5 m/s 740 mmHg 87%
    23:00 +3°C° 1 mm 5 m/s 740 mmHg 89%

    Demain, 22 Février, Vendredi

    Heure Température Précipitation Vent Pression Humidité
    00:00 +2°C° 0.8 mm 5 m/s 740 mmHg 89%
    01:00 +2°C° 0.8 mm 5 m/s 739 mmHg 90%
    02:00 +3°C° 0.8 mm 4 m/s 739 mmHg 91%
    03:00 +3°C° 0.7 mm 4 m/s 739 mmHg 92%
    04:00 +3°C° 0.7 mm 4 m/s 739 mmHg 93%
    05:00 +3°C° 0.7 mm 3 m/s 739 mmHg 95%
    06:00 0°C° 0.6 mm 5 m/s 739 mmHg 92%
    07:00 -3°C° 0.6 mm 6 m/s 740 mmHg 89%
    08:00 -6°C° 0.6 mm 8 m/s 741 mmHg 86%
    09:00 -6°C° 0.1 mm 8 m/s 742 mmHg 81%
    10:00 -6°C° 0.1 mm 7 m/s 743 mmHg 76%
    11:00 -6°C° 0.1 mm 7 m/s 745 mmHg 71%
    12:00 -6°C° 0 mm 7 m/s 746 mmHg 66%
    13:00 -6°C° 0 mm 7 m/s 747 mmHg 62%
    14:00 -5°C° 0 mm 6 m/s 748 mmHg 57%
    15:00 -5°C° 0 mm 6 m/s 748 mmHg 57%
    16:00 -6°C° 0 mm 6 m/s 749 mmHg 58%
    17:00 -6°C° 0 mm 6 m/s 749 mmHg 58%
    18:00 -8°C° 0 mm 6 m/s 750 mmHg 57%
    19:00 -7°C° 0 mm 5 m/s 750 mmHg 57%
    20:00 -8°C° 0 mm 5 m/s 751 mmHg 56%
    21:00 -8°C° 0 mm 5 m/s 752 mmHg 54%
    22:00 -8°C° 0 mm 5 m/s 752 mmHg 52%
    23:00 -9°C° 0 mm 6 m/s 753 mmHg 49%

    Après-demain, 23 Février, Samedi

    Heure Température Précipitation Vent Pression Humidité
    00:00 -8°C° 0 mm 5 m/s 753 mmHg 50%
    01:00 -8°C° 0 mm 5 m/s 753 mmHg 50%
    02:00 -8°C° 0 mm 5 m/s 753 mmHg 51%
    03:00 -10°C° 0 mm 5 m/s 754 mmHg 52%
    04:00 -10°C° 0 mm 5 m/s 754 mmHg 53%
    05:00 -9°C° 0 mm 4 m/s 754 mmHg 54%
    06:00 -9°C° 0 mm 4 m/s 754 mmHg 55%
    07:00 -9°C° 0 mm 4 m/s 754 mmHg 56%
    08:00 -8°C° 0 mm 3 m/s 755 mmHg 57%
    09:00 -9°C° 0 mm 4 m/s 755 mmHg 54%
    10:00 -8°C° 0 mm 4 m/s 755 mmHg 51%
    11:00 -7°C° 0 mm 4 m/s 756 mmHg 48%
    12:00 -7°C° 0 mm 4 m/s 756 mmHg 46%
    13:00 -5°C° 0 mm 4 m/s 755 mmHg 43%
    14:00 -5°C° 0 mm 4 m/s 755 mmHg 41%
    15:00 -5°C° 0 mm 4 m/s 755 mmHg 41%
    16:00 -5°C° 0 mm 4 m/s 755 mmHg 42%
    17:00 -5°C° 0 mm 4 m/s 755 mmHg 42%
    18:00 -5°C° 0 mm 3 m/s 755 mmHg 45%
    19:00 -6°C° 0 mm 3 m/s 755 mmHg 48%
    20:00 -5°C° 0 mm 2 m/s 755 mmHg 51%
    21:00 -5°C° 0 mm 2 m/s 755 mmHg 50%
    22:00 -5°C° 0 mm 2 m/s 755 mmHg 49%
    23:00 -5°C° 0 mm 2 m/s 755 mmHg 48%

    24 Février, Dimanche

    Heure Température Précipitation Vent Pression Humidité
    00:00 -3°C° 0 mm 1 m/s 755 mmHg 49%
    01:00 -3°C° 0 mm 1 m/s 755 mmHg 50%
    02:00 -3°C° 0 mm 1 m/s 755 mmHg 51%
    03:00 -5°C° 0 mm 2 m/s 754 mmHg 49%
    04:00 -5°C° 0 mm 2 m/s 754 mmHg 47%
    05:00 -4°C° 0 mm 2 m/s 754 mmHg 45%
    06:00 -4°C° 0 mm 2 m/s 754 mmHg 43%
    07:00 -4°C° 0 mm 2 m/s 753 mmHg 42%
    08:00 -4°C° 0 mm 2 m/s 753 mmHg 41%
    09:00 -4°C° 0 mm 3 m/s 753 mmHg 39%
    10:00 -2°C° 0 mm 3 m/s 753 mmHg 36%
    11:00 -1°C° 0 mm 3 m/s 753 mmHg 34%
    12:00 -1°C° 0 mm 4 m/s 752 mmHg 34%
    13:00 -1°C° 0 mm 4 m/s 752 mmHg 34%
    14:00 0°C° 0 mm 4 m/s 751 mmHg 35%
    15:00 0°C° 0 mm 4 m/s 751 mmHg 38%
    16:00 0°C° 0 mm 4 m/s 750 mmHg 41%
    17:00 +1°C° 0 mm 3 m/s 750 mmHg 44%
    18:00 +1°C° 0 mm 3 m/s 750 mmHg 49%
    19:00 -1°C° 0 mm 4 m/s 749 mmHg 54%
    20:00 -1°C° 0 mm 4 m/s 749 mmHg 60%
    21:00 -1°C° 0.1 mm 4 m/s 749 mmHg 64%
    22:00 -1°C° 0.1 mm 4 m/s 748 mmHg 69%
    23:00 -2°C° 0.1 mm 4 m/s 748 mmHg 74%

    25 Février, Lundi

    Heure Température Précipitation Vent Pression Humidité
    00:00 -2°C° 0 mm 5 m/s 747 mmHg 78%
    01:00 -2°C° 0 mm 5 m/s 747 mmHg 81%
    02:00 -2°C° 0 mm 5 m/s 746 mmHg 85%
    03:00 -2°C° 0.1 mm 5 m/s 746 mmHg 87%
    04:00 -2°C° 0.1 mm 6 m/s 746 mmHg 89%
    05:00 -1°C° 0.1 mm 6 m/s 746 mmHg 91%
    06:00 -1°C° 0 mm 6 m/s 746 mmHg 88%
    07:00 -2°C° 0 mm 6 m/s 746 mmHg 85%
    08:00 -2°C° 0 mm 6 m/s 746 mmHg 82%
    09:00 -2°C° 0 mm 7 m/s 746 mmHg 80%
    10:00 -1°C° 0 mm 7 m/s 746 mmHg 77%
    11:00 -1°C° 0 mm 8 m/s 747 mmHg 75%
    12:00 0°C° 0 mm 8 m/s 746 mmHg 70%
    13:00 0°C° 0 mm 8 m/s 746 mmHg 65%
    14:00 +1°C° 0 mm 9 m/s 746 mmHg 60%
    15:00 +1°C° 0 mm 8 m/s 746 mmHg 62%
    16:00 0°C° 0 mm 8 m/s 746 mmHg 64%
    17:00 0°C° 0 mm 7 m/s 746 mmHg 67%
    18:00 -1°C° 0 mm 7 m/s 746 mmHg 68%
    19:00 -1°C° 0 mm 6 m/s 746 mmHg 69%
    20:00 -2°C° 0 mm 6 m/s 747 mmHg 69%
    21:00 -2°C° 0 mm 6 m/s 747 mmHg 73%
    22:00 -2°C° 0 mm 5 m/s 747 mmHg 77%
    23:00 -2°C° 0 mm 5 m/s 747 mmHg 81%

    26 Février, Mardi

    Heure Température Précipitation Vent Pression Humidité
    00:00 -4°C° 0 mm 5 m/s 747 mmHg 84%
    01:00 -4°C° 0 mm 5 m/s 747 mmHg 87%
    02:00 -3°C° 0 mm 4 m/s 747 mmHg 90%
    03:00 -3°C° 0 mm 4 m/s 747 mmHg 90%
    04:00 -3°C° 0 mm 4 m/s 747 mmHg 91%
    05:00 -3°C° 0 mm 4 m/s 746 mmHg 91%
    06:00 -3°C° 0 mm 4 m/s 746 mmHg 91%
    07:00 -3°C° 0 mm 4 m/s 746 mmHg 90%
    08:00 -2°C° 0 mm 4 m/s 746 mmHg 89%
    09:00 -2°C° 0 mm 4 m/s 746 mmHg 86%
    10:00 -1°C° 0 mm 4 m/s 746 mmHg 83%
    11:00 0°C° 0 mm 4 m/s 746 mmHg 79%
    12:00 +1°C° 0 mm 4 m/s 746 mmHg 76%
    13:00 +3°C° 0 mm 4 m/s 745 mmHg 72%
    14:00 +4°C° 0 mm 4 m/s 745 mmHg 69%
    15:00 +4°C° 0 mm 4 m/s 745 mmHg 70%
    16:00 +4°C° 0 mm 3 m/s 744 mmHg 70%
    17:00 +3°C° 0 mm 3 m/s 744 mmHg 71%
    18:00 +2°C° 0 mm 3 m/s 744 mmHg 74%
    19:00 +1°C° 0 mm 3 m/s 744 mmHg 76%
    20:00 +1°C° 0 mm 2 m/s 744 mmHg 79%
    21:00 0°C° 0 mm 3 m/s 743 mmHg 81%
    22:00 0°C° 0 mm 3 m/s 743 mmHg 82%
    23:00 0°C° 0 mm 3 m/s 743 mmHg 84%
    Voir plus